Location: North Evanston
(42.0634°N, 87.6976°W)
Time: 15:04:08
(UTC+00:00)

Vanguard 2 - Pass Details

Date: 19 May 2026
Orbit: 553 x 2894 km, 32.9° (Epoch: 8 June)

Event Time Altitude Azimuth Distance (km) Brightness Sun altitude
Rises 13:21:43 0° 278° (W) 6,555 11.7 30.5°
Reaches altitude 10° 13:28:03 10° 264° (W) 5,255 11.3 31.6°
Maximum altitude 13:37:08 19° 226° (SW) 3,909 10.9 33.3°
Drops below altitude 10° 13:44:18 10° 186° (S) 4,000 11.3 34.7°
Sets 13:48:15 0° 169° (S) 4,584 11.7 35.4°
